Location: Chiroubles
(46.1812°N, 4.6660°E)
Time: 02:14:34
(UTC+00:00)

Explorer 7 - Pass Details

Date: 29 November 2020
Orbit: 484 x 678 km, 50.3° (Epoch: 25 January)

Event Time Altitude Azimuth Distance (km) Brightness Sun altitude
Exits shadow 04:41:55 47° 14° (NNE) 744 7.4 -23.5°
Drops below altitude 10° 04:45:38 10° 78° (ENE) 1,783 10.4 -22.8°
Sets 04:47:51 0° 85° (E) 2,643 11.7 -22.5°
